Simultaneous Nadir Overpasses (SNOs) Predictions

Prediction of SNOs between AQUA and METOP-A Satellite Orbit:

Table of predicted SNOs for the next 14.0 days since TLE Epoch: 9/11/2021
Index Date (AQUA) Time (AQUA) Lat,Lon (AQUA) SZA (AQUA ) Date (METOP-A) Time (METOP-A) Lat,Lon (METOP-A) SZA (METOP-A ) Distance(km) Time Diff (sec)
1 09/11/2021 21:05:51 -77.73, 26.09 106.03 09/11/2021 21:05:22 -77.71, 26.04 106.04 2.58 29
2 09/11/2021 21:55:18 77.74,-166.30 74.00 09/11/2021 21:56:01 77.75,-166.45 74.01 3.69 43
3 09/14/2021 16:40:06 -77.72, 92.60 104.99 09/14/2021 16:39:42 -77.73, 92.46 104.96 3.56 24
4 09/14/2021 17:29:34 77.77,-100.01 75.10 09/14/2021 17:30:21 77.76,-100.05 75.08 1.43 47
5 09/17/2021 12:14:21 -77.75, 158.87 103.87 09/17/2021 12:14:01 -77.74, 158.87 103.88 1.27 20
6 09/17/2021 13:03:48 77.77, -33.56 76.16 09/17/2021 13:04:40 77.78, -33.65 76.16 2.33 52
7 09/20/2021 07:48:36 -77.76,-134.70 102.80 09/20/2021 07:48:21 -77.76,-134.73 102.79 0.90 15
8 09/20/2021 08:38:03 77.78, 32.86 77.25 09/20/2021 08:39:00 77.78, 32.73 77.25 2.99 57
9 09/23/2021 02:33:15 77.34, 125.83 77.77 09/23/2021 02:32:11 77.25, 122.08 77.94 92.39 64
10 09/23/2021 03:22:51 -77.77, -68.31 101.70 09/23/2021 03:22:41 -77.77, -68.35 101.70 0.99 10



Historial Predications of SNOs between AQUA and METOP-A
